Date String (YYYY-MM-DD hh:mm:ss) UTC,Instrument flags,Ambient pressure (hPa),Sample flow (lpm),Bypass flow (lpm),Sample temperature (°C),Ambient temperature (°C),ASC tube jacket temperature (°C),LED temperature (°C),Box temperature (°C),Sample RH (%),Span deviation,Mass concentration (μg/m³),Mass concentration (μg/m³),Mass concentration (μg/m³)
DateTimeUTC,F1_M11,P_M11,Q1_M11,Q2_M11,T1_M11,T2_M11,T3_M11,T4_M11,T5_M11,U1_M11,ZSPAN_M11,X2_M11,X0_M11,X1_M11
2023-04-29 07:00:00,,0833.8,5.00,0.00,24.4,22.7,00.0,32.9,26.0,13.5,0000.0,0003.93,0010.19,0002.18
2023-04-29 07:01:00,,0833.8,5.00,0.00,24.4,22.8,00.0,32.9,25.9,13.4,0000.0,0003.95,0009.95,0002.17
2023-04-29 07:02:00,,0833.8,5.00,0.00,24.4,22.8,00.0,32.9,26.0,13.3,0000.0,0004.02,0010.12,0002.18
2023-04-29 07:03:00,,0833.8,5.00,0.00,24.4,22.8,00.0,32.9,26.0,13.2,0000.0,0004.07,0010.17,0002.18
2023-04-29 07:04:00,,0833.7,4.99,0.00,24.4,22.8,00.0,32.9,26.0,13.2,0000.0,0004.07,0010.17,0002.18
2023-04-29 07:05:00,,0833.7,5.00,0.00,24.4,22.8,00.0,32.9,26.0,13.2,0000.0,0004.06,0010.15,0002.19
2023-04-29 07:06:00,,0833.7,5.01,0.00,24.4,22.9,00.0,32.9,26.0,13.2,0000.0,0004.02,0009.91,0002.20
2023-04-29 07:07:00,,0833.8,4.99,0.00,24.4,22.9,00.0,32.9,26.0,13.1,0000.0,0003.98,0009.18,0002.19
2023-04-29 07:08:00,,0833.7,4.99,0.00,24.4,23.0,00.0,32.9,26.1,13.1,0000.0,0004.08,0009.33,0002.20
2023-04-29 07:09:00,,0833.8,5.01,0.00,24.5,23.0,00.0,32.9,26.1,13.1,0000.0,0004.16,0009.63,0002.21
2023-04-29 07:10:00,,0833.8,5.00,0.00,24.5,23.0,00.0,32.9,26.1,13.1,0000.0,0004.15,0009.78,0002.22
2023-04-29 07:11:00,,0833.7,5.01,0.00,24.5,23.0,00.0,32.9,26.0,13.1,0000.0,0004.15,0009.78,0002.24
2023-04-29 07:12:00,,0833.7,4.99,0.00,24.4,22.9,00.0,32.9,26.0,13.1,0000.0,0004.19,0010.00,0002.25
2023-04-29 07:13:00,,0833.7,4.99,0.00,24.4,22.8,00.0,32.8,25.9,13.1,0000.0,0004.21,0010.15,0002.25
2023-04-29 07:14:00,,0833.7,5.00,0.00,24.4,22.7,00.0,32.8,25.9,13.1,0000.0,0004.18,0010.16,0002.25
2023-04-29 07:15:00,,0833.7,5.01,0.00,24.3,22.7,00.0,32.8,25.8,13.1,0000.0,0004.23,0010.28,0002.25
2023-04-29 07:16:00,,0833.7,5.00,0.00,24.3,22.6,00.0,32.8,25.7,13.1,0000.0,0004.27,0010.44,0002.25
2023-04-29 07:17:00,,0833.7,5.01,0.00,24.3,22.6,00.0,32.8,25.8,13.1,0000.0,0004.28,0010.54,0002.24
2023-04-29 07:18:00,,0833.7,5.00,0.00,24.3,22.6,00.0,32.8,25.9,13.1,0000.0,0004.30,0010.28,0002.25
2023-04-29 07:19:00,,0833.8,4.98,0.00,24.3,22.7,00.0,32.8,25.9,13.1,0000.0,0004.28,0010.31,0002.25
2023-04-29 07:20:00,,0833.8,5.00,0.00,24.3,22.7,00.0,32.8,25.9,13.1,0000.0,0004.22,0010.41,0002.24
2023-04-29 07:21:00,,0833.8,5.00,0.00,24.3,22.7,00.0,32.7,25.8,13.1,0000.0,0004.21,0010.32,0002.24
2023-04-29 07:22:00,,0833.8,5.00,0.00,24.3,22.7,00.0,32.7,25.8,13.1,0000.0,0004.24,0010.44,0002.23
2023-04-29 07:23:00,,0833.8,5.01,0.00,24.3,22.7,00.0,32.7,25.8,13.2,0000.0,0004.23,0010.32,0002.22
2023-04-29 07:24:00,,0833.8,5.00,0.00,24.2,22.6,00.0,32.7,25.7,13.2,0000.0,0004.21,0010.14,0002.19
2023-04-29 07:25:00,,0833.7,5.00,0.00,24.2,22.5,00.0,32.7,25.6,13.2,0000.0,0004.17,0009.98,0002.16
2023-04-29 07:26:00,,0833.7,5.00,0.00,24.2,22.4,00.0,32.7,25.6,13.2,0000.0,0004.11,0010.16,0002.12
2023-04-29 07:27:00,,0833.7,5.00,0.00,24.2,22.4,00.0,32.7,25.6,12.9,0000.0,0004.05,0009.95,0002.09
2023-04-29 07:28:00,,0833.7,5.00,0.00,24.1,22.3,00.0,32.7,25.6,12.8,0000.0,0004.12,0010.28,0002.09
2023-04-29 07:29:00,,0833.7,5.00,0.00,24.1,22.3,00.0,32.6,25.6,12.6,0000.0,0004.11,0010.59,0002.06
2023-04-29 07:30:00,,0833.8,5.00,0.00,24.1,22.3,00.0,32.6,25.5,12.8,0000.0,0004.10,0010.78,0002.02
2023-04-29 07:31:00,,0833.7,4.99,0.00,24.1,22.3,00.0,32.6,25.5,12.6,0000.0,0004.11,0010.56,0001.99
2023-04-29 07:32:00,,0833.7,5.00,0.00,24.1,22.3,00.0,32.6,25.5,12.5,0000.0,0004.13,0010.61,0001.97
2023-04-29 07:33:00,,0833.7,5.00,0.00,24.1,22.4,00.0,32.6,25.5,12.6,0000.0,0004.14,0010.72,0001.94
2023-04-29 07:34:00,,0833.7,5.00,0.00,24.1,22.4,00.0,32.6,25.5,12.7,0000.0,0004.08,0010.92,0001.91
2023-04-29 07:35:00,,0833.7,5.00,0.00,24.0,22.4,00.0,32.5,25.5,12.6,0000.0,0004.06,0011.18,0001.88
2023-04-29 07:36:00,,0833.7,5.00,0.00,24.0,22.4,00.0,32.5,25.5,12.6,0000.0,0004.03,0011.16,0001.87
2023-04-29 07:37:00,,0833.6,5.00,0.00,24.0,22.4,00.0,32.5,25.5,12.6,0000.0,0004.02,0010.94,0001.88
2023-04-29 07:38:00,,0833.6,5.01,0.00,24.0,22.4,00.0,32.5,25.5,12.5,0000.0,0004.08,0011.45,0001.90
2023-04-29 07:39:00,,0833.6,4.98,0.00,24.0,22.4,00.0,32.5,25.5,12.5,0000.0,0003.99,0011.01,0001.87
2023-04-29 07:40:00,,0833.5,5.01,0.00,24.0,22.5,00.0,32.5,25.5,12.5,0000.0,0003.99,0010.83,0001.84
2023-04-29 07:41:00,,0833.5,5.00,0.00,24.0,22.5,00.0,32.5,25.5,12.5,0000.0,0003.98,0010.57,0001.84
2023-04-29 07:42:00,,0833.5,5.01,0.00,24.0,22.5,00.0,32.5,25.5,12.6,0000.0,0004.01,0010.65,0001.84
2023-04-29 07:43:00,,0833.5,4.99,0.00,24.0,22.5,00.0,32.5,25.5,12.7,0000.0,0004.06,0010.72,0001.83
2023-04-29 07:44:00,,0833.5,4.99,0.00,24.0,22.5,00.0,32.5,25.5,12.8,0000.0,0004.06,0010.67,0001.82
2023-04-29 07:45:00,,0833.5,5.01,0.00,24.0,22.5,00.0,32.5,25.5,12.8,0000.0,0004.07,0010.41,0001.81
2023-04-29 07:46:00,,0833.5,5.00,0.00,24.0,22.4,00.0,32.5,25.5,12.8,0000.0,0004.05,0009.99,0001.82
2023-04-29 07:47:00,,0833.5,5.01,0.00,24.0,22.4,00.0,32.5,25.5,12.8,0000.0,0004.09,0010.09,0001.83
2023-04-29 07:48:00,,0833.4,4.98,0.00,24.0,22.3,00.0,32.4,25.5,12.8,0000.0,0004.16,0010.44,0001.83
2023-04-29 07:49:00,,0833.4,5.00,0.00,24.0,22.3,00.0,32.4,25.5,12.8,0000.0,0004.16,0010.23,0001.81
2023-04-29 07:50:00,,0833.4,5.00,0.00,23.9,22.2,00.0,32.4,25.4,12.7,0000.0,0004.21,0010.38,0001.83
2023-04-29 07:51:00,,0833.4,5.01,0.00,23.9,22.2,00.0,32.4,25.4,12.6,0000.0,0004.24,0010.47,0001.86
2023-04-29 07:52:00,,0833.4,5.00,0.00,23.9,22.2,00.0,32.4,25.4,12.6,0000.0,0004.30,0010.83,0001.88
2023-04-29 07:53:00,,0833.4,5.00,0.00,23.9,22.2,00.0,32.4,25.4,12.5,0000.0,0004.33,0011.30,0001.89
2023-04-29 07:54:00,,0833.4,5.00,0.00,23.9,22.2,00.0,32.3,25.4,12.5,0000.0,0004.25,0011.13,0001.87
2023-04-29 07:55:00,,0833.4,5.00,0.00,23.9,22.1,00.0,32.3,25.3,12.4,0000.0,0004.22,0011.45,0001.87
2023-04-29 07:56:00,,0833.4,5.00,0.00,23.8,22.1,00.0,32.3,25.3,12.5,0000.0,0004.31,0011.84,0001.88
2023-04-29 07:57:00,,0833.5,5.00,0.00,23.8,22.0,00.0,32.3,25.3,12.8,0000.0,0004.37,0012.14,0001.89
2023-04-29 07:58:00,,0833.4,5.00,0.00,23.8,22.0,00.0,32.3,25.2,13.3,0000.0,0004.38,0012.15,0001.89
2023-04-29 07:59:00,,0833.4,5.00,0.00,23.8,22.0,00.0,32.3,25.2,13.4,0000.0,0004.34,0011.99,0001.88
